Left ArrowRight Arrow

34.16533, -84.80231

Hourly Observations for May 22, 2024

Temp ( °F °C ) Dew Point ( °F °C ) Humidity (%) Winds ( mph kmh ) Pressure ( in mb ) Visibility ( mi km ) Precip ( " mm )
3:40 pm 15:40 undefined N/A N/A N/A SW 9 15 30.05 1018 N/A 0.00 0.00
4:00 pm 16:00 undefined N/A N/A N/A SSW 9 15 30.03 1017 N/A 0.00 0.00
4:10 pm 16:10 undefined 86 30 61 16 43 43 VRB 7 11 29.95 1014 10 16 0.00 0.00
4:35 pm 16:35 undefined 86 30 61 16 43 43 S 6 9 29.94 1014 10 16 0.00 0.00
4:55 pm 16:55 Mostly Sunny 86 30 63 17 46 46 SSE 10 17 29.94 1014 10 16 0.00 0.00
5:15 pm 17:15 Sunny 86 30 61 16 43 43 SSE 9 15 29.93 1013 10 16 0.00 0.00
5:35 pm 17:35 Sunny 86 30 63 17 46 46 SSW 6 9 29.94 1014 10 16 0.00 0.00
5:55 pm 17:55 Sunny 84 29 64 18 52 52 SSW 8 13 29.95 1014 10 16 0.00 0.00
6:15 pm 18:15 Sunny 84 29 64 18 52 52 S 6 9 29.94 1014 10 16 0.00 0.00
6:35 pm 18:35 Sunny 82 28 64 18 55 55 SSW 3 6 29.94 1014 10 16 0.00 0.00
6:55 pm 18:55 Sunny 82 28 66 19 58 58 SSW 3 6 29.96 1015 10 16 0.00 0.00
7:15 pm 19:15 Sunny 81 27 66 19 62 62 VRB 5 7 29.96 1015 10 16 0.00 0.00
7:35 pm 19:35 Sunny 81 27 66 19 62 62 SSW 3 6 29.97 1015 10 16 0.00 0.00
7:55 pm 19:55 Sunny 81 27 66 19 62 62 VRB 3 6 29.99 1016 10 16 0.00 0.00
8:15 pm 20:15 Partly Cloudy 79 26 66 19 65 65 Calm 30.01 1016 10 16 0.00 0.00
8:35 pm 20:35 Mostly Cloudy 79 26 68 20 70 70 Calm 30.02 1016 10 16 0.00 0.00
8:55 pm 20:55 Partly Cloudy 79 26 68 20 70 70 Calm 30.02 1016 10 16 0.00 0.00
9:15 pm 21:15 Clear 77 25 68 20 74 74 Calm 30.02 1017 10 16 0.00 0.00
9:35 pm 21:35 Clear 77 25 68 20 74 74 Calm 30.03 1017 10 16 0.00 0.00
9:55 pm 21:55 Clear 75 24 70 21 83 83 ESE 5 7 30.00 1016 10 16 0.00 0.00
10:15 pm 22:15 Mostly Clear 75 24 68 20 78 78 E 10 17 29.95 1014 10 16 0.00 0.00
10:35 pm 22:35 Clear 73 23 66 19 78 78 SW 5 7 29.97 1015 10 16 0.00 0.00
10:55 pm 22:55 Clear 73 23 66 19 78 78 WSW 5 7 29.98 1015 10 16 0.00 0.00
11:15 pm 23:15 Clear 73 23 66 19 78 78 Calm 29.99 1016 10 16 0.00 0.00
11:35 pm 23:35 Clear 73 23 66 19 78 78 Calm 29.99 1016 10 16 0.00 0.00
11:55 pm 23:55 Clear 72 22 66 19 83 83 Calm 30.01 1016 10 16 0.00 0.00

Powered by Vaisala Xweather